Information on these data can be found in provided Readme document
Contact Info: Zachary Fasnacht (zachary.fasnacht@ssaihq.com); Nickolay Krotkov (nickolay.a.krotkov@nasa.gov); Lok Lamsal (lok.lamsal@nasa.gov)

FillValue: -999.
ScaleFactor: 1e15
Units: molecules/cm^2

Date(yyyy-mm-dd),City,Country,LonCenter,LatCenter,BoundingCoordinates,Median,Q1,Q3,Mean,Baseline_Median,Baseline_Q1,Baseline_Q3,Baseline_Mean,NumGoodSamples,NumTotalSamples
2015-01-01,Medellin,Colombia,-75.5906,6.2308,[-76.0906 5.7308 -75.0906 6.7308],0.561,0.061,0.93,0.471,0.523,-0.126,1.016,0.445,188.0,519.0
2015-01-02,Medellin,Colombia,-75.5906,6.2308,[-76.0906 5.7308 -75.0906 6.7308],0.561,0.061,0.945,0.477,0.517,-0.134,1.011,0.445,195.0,499.0
2015-01-03,Medellin,Colombia,-75.5906,6.2308,[-76.0906 5.7308 -75.0906 6.7308],0.57,-0.038,1.028,0.479,0.576,-0.144,1.089,0.496,180.0,520.0
2015-01-04,Medellin,Colombia,-75.5906,6.2308,[-76.0906 5.7308 -75.0906 6.7308],0.599,0.165,1.088,0.55,0.624,-0.034,1.192,0.544,192.0,496.0
2015-01-05,Medellin,Colombia,-75.5906,6.2308,[-76.0906 5.7308 -75.0906 6.7308],0.612,0.187,1.107,0.564,0.6,-0.022,1.178,0.562,188.0,529.0
2015-01-06,Medellin,Colombia,-75.5906,6.2308,[-76.0906 5.7308 -75.0906 6.7308],0.627,0.209,1.135,0.604,0.571,-0.066,1.172,0.539,157.0,513.0
2015-01-07,Medellin,Colombia,-75.5906,6.2308,[-76.0906 5.7308 -75.0906 6.7308],0.627,0.209,1.135,0.607,0.568,-0.05,1.184,0.549,158.0,524.0
2015-01-08,Medellin,Colombia,-75.5906,6.2308,[-76.0906 5.7308 -75.0906 6.7308],0.612,0.242,1.135,0.668,0.635,0.071,1.288,0.657,138.0,527.0
2015-01-09,Medellin,Colombia,-75.5906,6.2308,[-76.0906 5.7308 -75.0906 6.7308],0.612,0.242,1.135,0.668,0.627,0.083,1.286,0.67,138.0,486.0
2015-01-10,Medellin,Colombia,-75.5906,6.2308,[-76.0906 5.7308 -75.0906 6.7308],0.599,0.209,1.088,0.611,0.681,0.159,1.281,0.711,118.0,504.0
2015-01-11,Medellin,Colombia,-75.5906,6.2308,[-76.0906 5.7308 -75.0906 6.7308],0.599,0.209,1.088,0.611,0.714,0.204,1.388,0.736,118.0,471.0
2015-01-12,Medellin,Colombia,-75.5906,6.2308,[-76.0906 5.7308 -75.0906 6.7308],0.67,0.209,1.167,0.659,0.813,0.26,1.442,0.809,98.0,503.0
2015-01-13,Medellin,Colombia,-75.5906,6.2308,[-76.0906 5.7308 -75.0906 6.7308],0.662,0.209,1.088,0.585,0.822,0.218,1.452,0.785,63.0,480.0
2015-01-14,Medellin,Colombia,-75.5906,6.2308,[-76.0906 5.7308 -75.0906 6.7308],0.76,0.406,1.167,0.791,0.856,0.242,1.493,0.832,54.0,504.0
2015-01-15,Medellin,Colombia,-75.5906,6.2308,[-76.0906 5.7308 -75.0906 6.7308],0.861,0.568,1.413,0.937,0.775,0.182,1.435,0.806,29.0,495.0
2015-01-16,Medellin,Colombia,-75.5906,6.2308,[-76.0906 5.7308 -75.0906 6.7308],0.861,0.568,1.413,0.927,0.77,0.183,1.396,0.789,30.0,491.0
2015-01-17,Medellin,Colombia,-75.5906,6.2308,[-76.0906 5.7308 -75.0906 6.7308],0.861,0.568,1.413,0.932,0.831,0.166,1.403,0.793,23.0,497.0
2015-01-18,Medellin,Colombia,-75.5906,6.2308,[-76.0906 5.7308 -75.0906 6.7308],0.861,0.568,1.413,0.932,0.821,0.166,1.393,0.781,23.0,477.0
2015-01-19,Medellin,Colombia,-75.5906,6.2308,[-76.0906 5.7308 -75.0906 6.7308],0.806,0.403,1.886,1.017,0.725,0.074,1.326,0.697,11.0,499.0
2015-01-20,Medellin,Colombia,-75.5906,6.2308,[-76.0906 5.7308 -75.0906 6.7308],0.806,0.403,1.886,1.017,0.721,0.065,1.282,0.692,11.0,473.0
2015-01-21,Medellin,Colombia,-75.5906,6.2308,[-76.0906 5.7308 -75.0906 6.7308],0.806,0.403,1.886,1.017,0.676,-0.025,1.261,0.658,11.0,504.0
2015-01-22,Medellin,Colombia,-75.5906,6.2308,[-76.0906 5.7308 -75.0906 6.7308],0.507,0.425,1.168,0.784,0.629,-0.051,1.241,0.66,19.0,485.0
2015-01-23,Medellin,Colombia,-75.5906,6.2308,[-76.0906 5.7308 -75.0906 6.7308],0.507,0.277,1.12,0.575,0.649,-0.038,1.204,0.642,35.0,495.0
2015-01-24,Medellin,Colombia,-75.5906,6.2308,[-76.0906 5.7308 -75.0906 6.7308],0.507,0.277,1.152,0.62,0.656,-0.044,1.252,0.664,38.0,524.0
2015-01-25,Medellin,Colombia,-75.5906,6.2308,[-76.0906 5.7308 -75.0906 6.7308],0.749,0.307,1.235,0.773,0.633,-0.027,1.17,0.659,54.0,511.0
2015-01-26,Medellin,Colombia,-75.5906,6.2308,[-76.0906 5.7308 -75.0906 6.7308],0.749,0.307,1.308,0.793,0.631,-0.025,1.169,0.646,66.0,533.0
2015-01-27,Medellin,Colombia,-75.5906,6.2308,[-76.0906 5.7308 -75.0906 6.7308],0.749,0.307,1.308,0.793,0.596,-0.059,1.183,0.601,66.0,502.0
2015-01-28,Medellin,Colombia,-75.5906,6.2308,[-76.0906 5.7308 -75.0906 6.7308],0.749,0.307,1.308,0.793,0.588,-0.054,1.162,0.591,66.0,533.0
2015-01-29,Medellin,Colombia,-75.5906,6.2308,[-76.0906 5.7308 -75.0906 6.7308],0.67,0.307,1.235,0.776,0.575,0.001,1.14,0.574,57.0,506.0
2015-01-30,Medellin,Colombia,-75.5906,6.2308,[-76.0906 5.7308 -75.0906 6.7308],0.67,0.307,1.235,0.776,0.555,-0.021,1.108,0.58,57.0,529.0
2015-01-31,Medellin,Colombia,-75.5906,6.2308,[-76.0906 5.7308 -75.0906 6.7308],0.67,0.307,1.235,0.78,0.548,-0.055,1.117,0.568,56.0,521.0
2015-02-01,Medellin,Colombia,-75.5906,6.2308,[-76.0906 5.7308 -75.0906 6.7308],0.67,0.307,1.235,0.78,0.481,-0.083,1.111,0.562,56.0,520.0
2015-02-02,Medellin,Colombia,-75.5906,6.2308,[-76.0906 5.7308 -75.0906 6.7308],0.67,0.307,1.235,0.78,0.464,-0.093,1.107,0.54,56.0,528.0
2015-02-03,Medellin,Colombia,-75.5906,6.2308,[-76.0906 5.7308 -75.0906 6.7308],0.67,0.307,1.235,0.776,0.456,-0.065,1.079,0.537,57.0,507.0
2015-02-04,Medellin,Colombia,-75.5906,6.2308,[-76.0906 5.7308 -75.0906 6.7308],0.67,0.307,1.235,0.776,0.496,-0.049,1.134,0.561,57.0,531.0
2015-02-05,Medellin,Colombia,-75.5906,6.2308,[-76.0906 5.7308 -75.0906 6.7308],0.67,0.307,1.235,0.776,0.506,-0.05,1.125,0.565,57.0,507.0
2015-02-06,Medellin,Colombia,-75.5906,6.2308,[-76.0906 5.7308 -75.0906 6.7308],1.01,0.208,1.332,0.791,0.517,-0.064,1.167,0.562,48.0,539.0
2015-02-07,Medellin,Colombia,-75.5906,6.2308,[-76.0906 5.7308 -75.0906 6.7308],1.084,0.307,1.339,1.039,0.501,-0.164,1.13,0.561,32.0,520.0
2015-02-08,Medellin,Colombia,-75.5906,6.2308,[-76.0906 5.7308 -75.0906 6.7308],1.084,0.457,1.339,1.024,0.49,-0.146,1.073,0.521,48.0,530.0
2015-02-09,Medellin,Colombia,-75.5906,6.2308,[-76.0906 5.7308 -75.0906 6.7308],0.602,-0.165,1.4,0.669,0.471,-0.244,1.132,0.51,45.0,531.0
2015-02-10,Medellin,Colombia,-75.5906,6.2308,[-76.0906 5.7308 -75.0906 6.7308],0.602,-0.445,1.4,0.599,0.486,-0.255,1.165,0.519,33.0,488.0
2015-02-11,Medellin,Colombia,-75.5906,6.2308,[-76.0906 5.7308 -75.0906 6.7308],0.584,-0.445,1.272,0.542,0.51,-0.151,1.168,0.533,43.0,510.0
2015-02-12,Medellin,Colombia,-75.5906,6.2308,[-76.0906 5.7308 -75.0906 6.7308],0.584,-0.445,1.272,0.542,0.53,-0.194,1.187,0.544,43.0,479.0
2015-02-13,Medellin,Colombia,-75.5906,6.2308,[-76.0906 5.7308 -75.0906 6.7308],0.584,-0.445,1.272,0.542,0.574,-0.108,1.238,0.587,43.0,513.0
2015-02-14,Medellin,Colombia,-75.5906,6.2308,[-76.0906 5.7308 -75.0906 6.7308],0.413,-0.007,0.931,0.431,0.582,-0.143,1.218,0.555,57.0,488.0
2015-02-15,Medellin,Colombia,-75.5906,6.2308,[-76.0906 5.7308 -75.0906 6.7308],0.365,-0.165,0.911,0.397,0.576,-0.157,1.195,0.555,93.0,508.0
2015-02-16,Medellin,Colombia,-75.5906,6.2308,[-76.0906 5.7308 -75.0906 6.7308],0.507,0.004,1.157,0.527,0.576,-0.123,1.215,0.548,103.0,497.0
2015-02-17,Medellin,Colombia,-75.5906,6.2308,[-76.0906 5.7308 -75.0906 6.7308],0.527,-0.007,1.157,0.573,0.555,-0.084,1.196,0.557,109.0,493.0
2015-02-18,Medellin,Colombia,-75.5906,6.2308,[-76.0906 5.7308 -75.0906 6.7308],0.53,-0.007,1.157,0.568,0.572,-0.052,1.218,0.581,118.0,502.0
2015-02-19,Medellin,Colombia,-75.5906,6.2308,[-76.0906 5.7308 -75.0906 6.7308],0.53,-0.007,1.157,0.565,0.541,-0.065,1.178,0.538,126.0,481.0
2015-02-20,Medellin,Colombia,-75.5906,6.2308,[-76.0906 5.7308 -75.0906 6.7308],0.53,-0.007,1.157,0.565,0.533,-0.07,1.183,0.561,126.0,504.0
2015-02-21,Medellin,Colombia,-75.5906,6.2308,[-76.0906 5.7308 -75.0906 6.7308],0.53,-0.007,1.157,0.565,0.518,-0.066,1.159,0.535,126.0,479.0
2015-02-22,Medellin,Colombia,-75.5906,6.2308,[-76.0906 5.7308 -75.0906 6.7308],0.565,0.004,1.165,0.612,0.542,-0.065,1.149,0.543,135.0,510.0
2015-02-23,Medellin,Colombia,-75.5906,6.2308,[-76.0906 5.7308 -75.0906 6.7308],0.474,-0.016,1.157,0.555,0.568,-0.021,1.21,0.574,116.0,491.0
2015-02-24,Medellin,Colombia,-75.5906,6.2308,[-76.0906 5.7308 -75.0906 6.7308],0.488,-0.007,1.085,0.57,0.587,0.005,1.179,0.584,122.0,501.0
2015-02-25,Medellin,Colombia,-75.5906,6.2308,[-76.0906 5.7308 -75.0906 6.7308],0.561,0.01,1.089,0.619,0.596,-0.042,1.154,0.577,129.0,530.0
2015-02-26,Medellin,Colombia,-75.5906,6.2308,[-76.0906 5.7308 -75.0906 6.7308],0.628,0.01,1.157,0.645,0.626,-0.005,1.178,0.642,126.0,512.0
2015-02-27,Medellin,Colombia,-75.5906,6.2308,[-76.0906 5.7308 -75.0906 6.7308],0.628,0.01,1.157,0.645,0.592,-0.004,1.155,0.607,126.0,533.0
2015-02-28,Medellin,Colombia,-75.5906,6.2308,[-76.0906 5.7308 -75.0906 6.7308],0.628,0.01,1.157,0.645,0.585,0.002,1.172,0.572,126.0,501.0
2015-03-01,Medellin,Colombia,-75.5906,6.2308,[-76.0906 5.7308 -75.0906 6.7308],0.788,0.01,1.274,0.743,0.667,0.017,1.148,0.644,112.0,532.0
2015-03-02,Medellin,Colombia,-75.5906,6.2308,[-76.0906 5.7308 -75.0906 6.7308],0.796,0.06,1.199,0.808,0.632,-0.013,1.055,0.616,86.0,509.0
2015-03-03,Medellin,Colombia,-75.5906,6.2308,[-76.0906 5.7308 -75.0906 6.7308],0.59,0.007,1.011,0.607,0.539,-0.069,0.972,0.534,111.0,531.0
2015-03-04,Medellin,Colombia,-75.5906,6.2308,[-76.0906 5.7308 -75.0906 6.7308],0.552,-0.114,0.946,0.48,0.517,-0.046,0.921,0.498,112.0,520.0
2015-03-05,Medellin,Colombia,-75.5906,6.2308,[-76.0906 5.7308 -75.0906 6.7308],0.628,-0.098,1.085,0.584,0.55,-0.062,0.978,0.526,117.0,516.0
2015-03-06,Medellin,Colombia,-75.5906,6.2308,[-76.0906 5.7308 -75.0906 6.7308],0.628,-0.096,1.163,0.589,0.528,-0.061,1.005,0.529,109.0,522.0
2015-03-07,Medellin,Colombia,-75.5906,6.2308,[-76.0906 5.7308 -75.0906 6.7308],0.628,-0.096,1.163,0.589,0.517,-0.03,0.995,0.519,109.0,500.0
2015-03-08,Medellin,Colombia,-75.5906,6.2308,[-76.0906 5.7308 -75.0906 6.7308],0.628,-0.096,1.163,0.589,0.538,-0.024,1.004,0.531,109.0,523.0
2015-03-09,Medellin,Colombia,-75.5906,6.2308,[-76.0906 5.7308 -75.0906 6.7308],0.592,-0.114,1.081,0.531,0.571,-0.053,0.969,0.52,100.0,499.0
2015-03-10,Medellin,Colombia,-75.5906,6.2308,[-76.0906 5.7308 -75.0906 6.7308],0.578,-0.148,1.081,0.523,0.557,-0.066,0.963,0.516,108.0,530.0
2015-03-11,Medellin,Colombia,-75.5906,6.2308,[-76.0906 5.7308 -75.0906 6.7308],0.592,-0.098,1.199,0.56,0.558,-0.065,0.98,0.516,89.0,513.0
2015-03-12,Medellin,Colombia,-75.5906,6.2308,[-76.0906 5.7308 -75.0906 6.7308],0.531,-0.156,1.167,0.484,0.514,-0.072,0.975,0.499,82.0,523.0
2015-03-13,Medellin,Colombia,-75.5906,6.2308,[-76.0906 5.7308 -75.0906 6.7308],0.506,-0.156,1.011,0.449,0.508,-0.071,0.956,0.482,75.0,527.0
2015-03-14,Medellin,Colombia,-75.5906,6.2308,[-76.0906 5.7308 -75.0906 6.7308],0.506,-0.156,1.011,0.449,0.554,0.008,0.956,0.53,75.0,484.0
2015-03-15,Medellin,Colombia,-75.5906,6.2308,[-76.0906 5.7308 -75.0906 6.7308],0.506,-0.156,1.011,0.449,0.552,0.002,0.953,0.498,75.0,506.0
2015-03-16,Medellin,Colombia,-75.5906,6.2308,[-76.0906 5.7308 -75.0906 6.7308],0.51,-0.156,1.007,0.452,0.545,-0.001,0.947,0.482,83.0,476.0
2015-03-17,Medellin,Colombia,-75.5906,6.2308,[-76.0906 5.7308 -75.0906 6.7308],0.478,-0.373,1.076,0.449,0.496,-0.044,0.892,0.466,73.0,511.0
2015-03-18,Medellin,Colombia,-75.5906,6.2308,[-76.0906 5.7308 -75.0906 6.7308],0.771,-0.373,1.251,0.593,0.491,-0.168,0.926,0.433,41.0,485.0
2015-03-19,Medellin,Colombia,-75.5906,6.2308,[-76.0906 5.7308 -75.0906 6.7308],0.771,0.002,1.46,0.761,0.464,-0.158,0.938,0.43,62.0,507.0
2015-03-20,Medellin,Colombia,-75.5906,6.2308,[-76.0906 5.7308 -75.0906 6.7308],0.462,-0.142,1.116,0.573,0.407,-0.203,0.893,0.354,47.0,495.0
2015-03-21,Medellin,Colombia,-75.5906,6.2308,[-76.0906 5.7308 -75.0906 6.7308],0.462,-0.142,1.116,0.573,0.415,-0.204,0.847,0.342,47.0,490.0
2015-03-22,Medellin,Colombia,-75.5906,6.2308,[-76.0906 5.7308 -75.0906 6.7308],0.462,-0.142,1.116,0.573,0.411,-0.216,0.869,0.355,47.0,497.0
2015-03-23,Medellin,Colombia,-75.5906,6.2308,[-76.0906 5.7308 -75.0906 6.7308],0.521,0.055,1.128,0.659,0.427,-0.144,0.867,0.38,54.0,477.0
2015-03-24,Medellin,Colombia,-75.5906,6.2308,[-76.0906 5.7308 -75.0906 6.7308],0.521,0.055,1.128,0.659,0.422,-0.128,0.81,0.353,54.0,500.0
2015-03-25,Medellin,Colombia,-75.5906,6.2308,[-76.0906 5.7308 -75.0906 6.7308],0.547,0.181,1.116,0.696,0.406,-0.157,0.815,0.347,46.0,473.0
2015-03-26,Medellin,Colombia,-75.5906,6.2308,[-76.0906 5.7308 -75.0906 6.7308],0.484,-0.024,1.116,0.652,0.348,-0.211,0.809,0.325,55.0,504.0
2015-03-27,Medellin,Colombia,-75.5906,6.2308,[-76.0906 5.7308 -75.0906 6.7308],0.484,-0.024,1.116,0.652,0.34,-0.224,0.829,0.321,55.0,486.0
2015-03-28,Medellin,Colombia,-75.5906,6.2308,[-76.0906 5.7308 -75.0906 6.7308],0.484,-0.024,1.128,0.66,0.362,-0.13,0.83,0.342,64.0,494.0
2015-03-29,Medellin,Colombia,-75.5906,6.2308,[-76.0906 5.7308 -75.0906 6.7308],0.484,-0.024,1.128,0.66,0.346,-0.176,0.829,0.329,64.0,526.0
2015-03-30,Medellin,Colombia,-75.5906,6.2308,[-76.0906 5.7308 -75.0906 6.7308],0.484,-0.051,1.109,0.637,0.354,-0.154,0.813,0.351,69.0,513.0
2015-03-31,Medellin,Colombia,-75.5906,6.2308,[-76.0906 5.7308 -75.0906 6.7308],0.462,-0.142,1.128,0.646,0.352,-0.169,0.818,0.354,65.0,535.0
2015-04-01,Medellin,Colombia,-75.5906,6.2308,[-76.0906 5.7308 -75.0906 6.7308],0.462,-0.142,1.128,0.646,0.395,-0.102,0.885,0.407,65.0,501.0
2015-04-02,Medellin,Colombia,-75.5906,6.2308,[-76.0906 5.7308 -75.0906 6.7308],0.446,-0.201,1.408,0.631,0.364,-0.064,0.895,0.438,62.0,536.0
2015-04-03,Medellin,Colombia,-75.5906,6.2308,[-76.0906 5.7308 -75.0906 6.7308],0.391,-0.087,1.109,0.631,0.356,-0.051,0.915,0.441,34.0,511.0
2015-04-04,Medellin,Colombia,-75.5906,6.2308,[-76.0906 5.7308 -75.0906 6.7308],0.391,-0.087,1.109,0.631,0.375,-0.033,0.939,0.463,34.0,536.0
2015-04-05,Medellin,Colombia,-75.5906,6.2308,[-76.0906 5.7308 -75.0906 6.7308],0.391,-0.024,1.109,0.617,0.383,0.02,0.856,0.463,39.0,525.0
2015-04-06,Medellin,Colombia,-75.5906,6.2308,[-76.0906 5.7308 -75.0906 6.7308],0.391,-0.024,1.109,0.617,0.376,0.019,0.825,0.462,39.0,519.0
2015-04-07,Medellin,Colombia,-75.5906,6.2308,[-76.0906 5.7308 -75.0906 6.7308],0.297,-0.201,0.977,0.453,0.385,0.043,0.85,0.467,33.0,524.0
2015-04-08,Medellin,Colombia,-75.5906,6.2308,[-76.0906 5.7308 -75.0906 6.7308],0.442,-0.052,1.109,0.551,0.451,0.084,0.848,0.492,39.0,503.0
2015-04-09,Medellin,Colombia,-75.5906,6.2308,[-76.0906 5.7308 -75.0906 6.7308],0.442,-0.052,1.109,0.551,0.433,0.014,0.872,0.48,39.0,529.0
2015-04-10,Medellin,Colombia,-75.5906,6.2308,[-76.0906 5.7308 -75.0906 6.7308],0.442,0.001,1.218,0.608,0.436,0.028,0.89,0.509,30.0,503.0
2015-04-11,Medellin,Colombia,-75.5906,6.2308,[-76.0906 5.7308 -75.0906 6.7308],0.391,-0.201,1.109,0.563,0.418,-0.017,0.851,0.514,41.0,535.0
2015-04-12,Medellin,Colombia,-75.5906,6.2308,[-76.0906 5.7308 -75.0906 6.7308],0.378,-0.205,0.96,0.516,0.427,-0.02,0.858,0.501,32.0,517.0
2015-04-13,Medellin,Colombia,-75.5906,6.2308,[-76.0906 5.7308 -75.0906 6.7308],0.469,0.059,1.272,0.687,0.444,-0.002,0.876,0.491,49.0,524.0
2015-04-14,Medellin,Colombia,-75.5906,6.2308,[-76.0906 5.7308 -75.0906 6.7308],0.956,0.242,1.648,0.922,0.541,-0.008,1.08,0.579,52.0,523.0
2015-04-15,Medellin,Colombia,-75.5906,6.2308,[-76.0906 5.7308 -75.0906 6.7308],0.96,0.252,1.648,0.964,0.527,0.06,0.958,0.541,48.0,478.0
2015-04-16,Medellin,Colombia,-75.5906,6.2308,[-76.0906 5.7308 -75.0906 6.7308],0.923,0.206,1.555,0.771,0.536,0.045,0.976,0.547,66.0,496.0
2015-04-17,Medellin,Colombia,-75.5906,6.2308,[-76.0906 5.7308 -75.0906 6.7308],0.735,0.186,1.494,0.745,0.559,0.083,1.03,0.579,69.0,464.0
2015-04-18,Medellin,Colombia,-75.5906,6.2308,[-76.0906 5.7308 -75.0906 6.7308],0.735,0.186,1.494,0.745,0.538,0.06,1.014,0.553,69.0,498.0
2015-04-19,Medellin,Colombia,-75.5906,6.2308,[-76.0906 5.7308 -75.0906 6.7308],0.626,0.231,1.272,0.701,0.561,0.077,1.013,0.564,79.0,471.0
2015-04-20,Medellin,Colombia,-75.5906,6.2308,[-76.0906 5.7308 -75.0906 6.7308],0.633,0.169,1.069,0.668,0.553,0.031,1.041,0.558,109.0,496.0
2015-04-21,Medellin,Colombia,-75.5906,6.2308,[-76.0906 5.7308 -75.0906 6.7308],0.483,0.06,0.984,0.55,0.513,0.009,0.996,0.528,120.0,493.0
2015-04-22,Medellin,Colombia,-75.5906,6.2308,[-76.0906 5.7308 -75.0906 6.7308],0.483,0.07,0.984,0.554,0.513,0.01,0.987,0.521,129.0,494.0
2015-04-23,Medellin,Colombia,-75.5906,6.2308,[-76.0906 5.7308 -75.0906 6.7308],0.477,-0.032,0.956,0.513,0.485,-0.051,0.976,0.485,129.0,502.0
2015-04-24,Medellin,Colombia,-75.5906,6.2308,[-76.0906 5.7308 -75.0906 6.7308],0.516,0.096,1.011,0.58,0.472,-0.015,0.964,0.483,142.0,481.0
2015-04-25,Medellin,Colombia,-75.5906,6.2308,[-76.0906 5.7308 -75.0906 6.7308],0.516,0.096,1.011,0.58,0.476,-0.03,0.99,0.496,142.0,505.0
2015-04-26,Medellin,Colombia,-75.5906,6.2308,[-76.0906 5.7308 -75.0906 6.7308],0.516,0.169,1.011,0.585,0.475,0.009,1.014,0.506,135.0,482.0
2015-04-27,Medellin,Colombia,-75.5906,6.2308,[-76.0906 5.7308 -75.0906 6.7308],0.516,0.096,1.059,0.601,0.499,0.012,1.026,0.547,144.0,514.0
2015-04-28,Medellin,Colombia,-75.5906,6.2308,[-76.0906 5.7308 -75.0906 6.7308],0.483,-0.036,0.951,0.499,0.489,-0.028,0.992,0.515,134.0,498.0
2015-04-29,Medellin,Colombia,-75.5906,6.2308,[-76.0906 5.7308 -75.0906 6.7308],0.477,-0.036,0.951,0.514,0.471,-0.044,0.962,0.506,139.0,507.0
2015-04-30,Medellin,Colombia,-75.5906,6.2308,[-76.0906 5.7308 -75.0906 6.7308],0.477,-0.036,0.985,0.533,0.502,-0.061,1.093,0.535,148.0,537.0
2015-05-01,Medellin,Colombia,-75.5906,6.2308,[-76.0906 5.7308 -75.0906 6.7308],0.499,-0.036,1.152,0.597,0.464,-0.095,1.079,0.532,149.0,520.0
2015-05-02,Medellin,Colombia,-75.5906,6.2308,[-76.0906 5.7308 -75.0906 6.7308],0.483,-0.186,1.179,0.55,0.452,-0.17,1.093,0.503,161.0,540.0
2015-05-03,Medellin,Colombia,-75.5906,6.2308,[-76.0906 5.7308 -75.0906 6.7308],0.516,-0.036,1.234,0.609,0.496,-0.048,1.151,0.556,171.0,508.0
2015-05-04,Medellin,Colombia,-75.5906,6.2308,[-76.0906 5.7308 -75.0906 6.7308],0.516,-0.186,1.443,0.616,0.485,-0.132,1.236,0.542,161.0,542.0
2015-05-05,Medellin,Colombia,-75.5906,6.2308,[-76.0906 5.7308 -75.0906 6.7308],0.43,-0.108,1.403,0.573,0.434,-0.127,1.242,0.529,137.0,523.0
2015-05-06,Medellin,Colombia,-75.5906,6.2308,[-76.0906 5.7308 -75.0906 6.7308],0.622,-0.101,1.51,0.635,0.517,-0.107,1.281,0.555,134.0,543.0
2015-05-07,Medellin,Colombia,-75.5906,6.2308,[-76.0906 5.7308 -75.0906 6.7308],0.622,-0.115,1.481,0.608,0.505,-0.139,1.145,0.507,130.0,535.0
2015-05-08,Medellin,Colombia,-75.5906,6.2308,[-76.0906 5.7308 -75.0906 6.7308],0.622,-0.101,1.427,0.629,0.531,-0.061,1.278,0.58,136.0,533.0
2015-05-09,Medellin,Colombia,-75.5906,6.2308,[-76.0906 5.7308 -75.0906 6.7308],0.512,-0.176,1.443,0.555,0.516,-0.045,1.35,0.572,135.0,542.0
2015-05-10,Medellin,Colombia,-75.5906,6.2308,[-76.0906 5.7308 -75.0906 6.7308],0.622,-0.115,1.33,0.569,0.558,-0.133,1.208,0.533,147.0,519.0
2015-05-11,Medellin,Colombia,-75.5906,6.2308,[-76.0906 5.7308 -75.0906 6.7308],0.622,-0.115,1.33,0.571,0.588,-0.128,1.328,0.61,143.0,539.0
2015-05-12,Medellin,Colombia,-75.5906,6.2308,[-76.0906 5.7308 -75.0906 6.7308],0.622,-0.115,1.33,0.559,0.572,-0.154,1.309,0.575,134.0,519.0
2015-05-13,Medellin,Colombia,-75.5906,6.2308,[-76.0906 5.7308 -75.0906 6.7308],0.667,-0.101,1.33,0.623,0.566,-0.176,1.232,0.563,137.0,550.0
2015-05-14,Medellin,Colombia,-75.5906,6.2308,[-76.0906 5.7308 -75.0906 6.7308],0.671,-0.101,1.207,0.577,0.568,-0.173,1.226,0.555,131.0,534.0
2015-05-15,Medellin,Colombia,-75.5906,6.2308,[-76.0906 5.7308 -75.0906 6.7308],0.671,-0.115,1.207,0.565,0.572,-0.117,1.308,0.567,138.0,544.0
2015-05-16,Medellin,Colombia,-75.5906,6.2308,[-76.0906 5.7308 -75.0906 6.7308],0.671,-0.101,1.207,0.542,0.537,-0.121,1.318,0.555,127.0,550.0
2015-05-17,Medellin,Colombia,-75.5906,6.2308,[-76.0906 5.7308 -75.0906 6.7308],0.671,-0.043,1.207,0.598,0.55,-0.041,1.277,0.589,112.0,507.0
2015-05-18,Medellin,Colombia,-75.5906,6.2308,[-76.0906 5.7308 -75.0906 6.7308],0.667,-0.101,1.109,0.535,0.604,-0.011,1.246,0.604,106.0,530.0
2015-05-19,Medellin,Colombia,-75.5906,6.2308,[-76.0906 5.7308 -75.0906 6.7308],0.581,-0.115,1.109,0.496,0.589,-0.037,1.234,0.595,117.0,499.0
2015-05-20,Medellin,Colombia,-75.5906,6.2308,[-76.0906 5.7308 -75.0906 6.7308],0.687,-0.176,1.18,0.548,0.603,-0.048,1.264,0.635,106.0,526.0
2015-05-21,Medellin,Colombia,-75.5906,6.2308,[-76.0906 5.7308 -75.0906 6.7308],0.687,-0.176,1.18,0.55,0.609,-0.047,1.294,0.643,98.0,503.0
2015-05-22,Medellin,Colombia,-75.5906,6.2308,[-76.0906 5.7308 -75.0906 6.7308],0.706,-0.048,1.207,0.599,0.64,-0.002,1.307,0.675,95.0,522.0
2015-05-23,Medellin,Colombia,-75.5906,6.2308,[-76.0906 5.7308 -75.0906 6.7308],0.706,-0.006,1.207,0.608,0.627,0.003,1.285,0.66,87.0,513.0
2015-05-24,Medellin,Colombia,-75.5906,6.2308,[-76.0906 5.7308 -75.0906 6.7308],0.706,-0.054,1.199,0.627,0.638,0.001,1.284,0.677,95.0,510.0
2015-05-25,Medellin,Colombia,-75.5906,6.2308,[-76.0906 5.7308 -75.0906 6.7308],0.624,-0.149,1.207,0.59,0.639,0.011,1.308,0.699,106.0,520.0
2015-05-26,Medellin,Colombia,-75.5906,6.2308,[-76.0906 5.7308 -75.0906 6.7308],0.512,-0.169,1.199,0.537,0.571,0.016,1.277,0.649,115.0,497.0
2015-05-27,Medellin,Colombia,-75.5906,6.2308,[-76.0906 5.7308 -75.0906 6.7308],0.512,-0.169,1.199,0.537,0.638,0.009,1.296,0.677,115.0,517.0
2015-05-28,Medellin,Colombia,-75.5906,6.2308,[-76.0906 5.7308 -75.0906 6.7308],0.512,-0.292,1.201,0.513,0.662,0.004,1.261,0.71,105.0,493.0
2015-05-29,Medellin,Colombia,-75.5906,6.2308,[-76.0906 5.7308 -75.0906 6.7308],0.24,-0.297,1.139,0.451,0.634,0.014,1.252,0.703,100.0,522.0
2015-05-30,Medellin,Colombia,-75.5906,6.2308,[-76.0906 5.7308 -75.0906 6.7308],0.374,-0.297,0.902,0.406,0.69,0.032,1.284,0.719,88.0,502.0
2015-05-31,Medellin,Colombia,-75.5906,6.2308,[-76.0906 5.7308 -75.0906 6.7308],0.404,-0.149,1.041,0.465,0.695,0.052,1.292,0.716,99.0,511.0
2015-06-01,Medellin,Colombia,-75.5906,6.2308,[-76.0906 5.7308 -75.0906 6.7308],0.404,-0.157,0.987,0.447,0.681,0.034,1.308,0.72,100.0,541.0
2015-06-02,Medellin,Colombia,-75.5906,6.2308,[-76.0906 5.7308 -75.0906 6.7308],0.404,-0.157,0.863,0.424,0.587,0.007,1.224,0.671,96.0,523.0
2015-06-03,Medellin,Colombia,-75.5906,6.2308,[-76.0906 5.7308 -75.0906 6.7308],0.421,-0.125,1.199,0.53,0.601,0.022,1.344,0.699,97.0,543.0
2015-06-04,Medellin,Colombia,-75.5906,6.2308,[-76.0906 5.7308 -75.0906 6.7308],0.503,-0.06,1.199,0.594,0.647,0.023,1.256,0.688,114.0,512.0
2015-06-05,Medellin,Colombia,-75.5906,6.2308,[-76.0906 5.7308 -75.0906 6.7308],0.503,-0.06,1.199,0.594,0.621,-0.014,1.202,0.647,114.0,541.0
2015-06-06,Medellin,Colombia,-75.5906,6.2308,[-76.0906 5.7308 -75.0906 6.7308],0.503,-0.06,1.193,0.585,0.62,-0.028,1.19,0.628,111.0,514.0
2015-06-07,Medellin,Colombia,-75.5906,6.2308,[-76.0906 5.7308 -75.0906 6.7308],0.503,-0.097,1.193,0.574,0.635,-0.033,1.208,0.63,130.0,534.0
2015-06-08,Medellin,Colombia,-75.5906,6.2308,[-76.0906 5.7308 -75.0906 6.7308],0.514,-0.086,1.13,0.529,0.619,-0.005,1.174,0.614,127.0,524.0
2015-06-09,Medellin,Colombia,-75.5906,6.2308,[-76.0906 5.7308 -75.0906 6.7308],0.512,-0.083,1.152,0.548,0.623,-0.012,1.15,0.62,123.0,522.0
2015-06-10,Medellin,Colombia,-75.5906,6.2308,[-76.0906 5.7308 -75.0906 6.7308],0.516,-0.051,1.193,0.58,0.538,0.007,1.148,0.61,123.0,529.0
2015-06-11,Medellin,Colombia,-75.5906,6.2308,[-76.0906 5.7308 -75.0906 6.7308],0.548,0.002,1.056,0.586,0.539,0.026,1.074,0.577,129.0,506.0
2015-06-12,Medellin,Colombia,-75.5906,6.2308,[-76.0906 5.7308 -75.0906 6.7308],0.548,0.002,1.056,0.586,0.578,0.019,1.13,0.615,129.0,527.0
2015-06-13,Medellin,Colombia,-75.5906,6.2308,[-76.0906 5.7308 -75.0906 6.7308],0.548,0.002,1.13,0.589,0.579,0.022,1.151,0.614,127.0,502.0
2015-06-14,Medellin,Colombia,-75.5906,6.2308,[-76.0906 5.7308 -75.0906 6.7308],0.614,0.004,1.292,0.624,0.592,0.029,1.202,0.623,124.0,535.0
2015-06-15,Medellin,Colombia,-75.5906,6.2308,[-76.0906 5.7308 -75.0906 6.7308],0.614,0.015,1.095,0.614,0.616,0.017,1.171,0.636,114.0,516.0
2015-06-16,Medellin,Colombia,-75.5906,6.2308,[-76.0906 5.7308 -75.0906 6.7308],0.604,-0.051,1.095,0.597,0.506,-0.031,1.11,0.586,143.0,526.0
2015-06-17,Medellin,Colombia,-75.5906,6.2308,[-76.0906 5.7308 -75.0906 6.7308],0.65,0.076,1.217,0.667,0.532,0.053,1.166,0.63,161.0,529.0
2015-06-18,Medellin,Colombia,-75.5906,6.2308,[-76.0906 5.7308 -75.0906 6.7308],0.65,0.035,1.152,0.646,0.507,0.022,1.149,0.61,149.0,486.0